Weather History for North Wilkesboro, NC

Change the Weather History Date:

Thursday, October 4, 2012

  Actual Average Record
Temperature  
Mean Temperature 65 °F -  
Max Temperature 77 °F 74 °F 88 °F (1986)
Min Temperature 53 °F 44 °F 25 °F (1974)
Growing Degree Days 15 (Base 50)    
Moisture  
Dew Point 57 °F    
Average Humidity 77    
Maximum Humidity 100    
Minimum Humidity 41    
Precipitation  
Precipitation 0.00 in - - ()
Sea Level Pressure  
Sea Level Pressure 30.28 in    
Wind  
Wind Speed 2 mph (WNW)    
Max Wind Speed 9 mph    
Max Gust Speed -    
Visibility 9 miles    
Events      
Averages and records for this station are not official NWS values.
T = Trace of Precipitation, MM = Missing Value Source: NWS Daily Summary

Daily Weather History Graph

Daily Weather History Graph

Search for Another Location

Airport:

Trip Planner

Search our weather history database for the weather conditions in past years. The results will help you decide how hot, cold, wet, or windy it might be!

Date:

Astronomy

Oct. 04, 2012 Rise Set
Actual Time 7:22 AM EDT 7:02 PM EDT
Civil Twilight 6:56 AM EDT 7:28 PM EDT
Nautical Twilight 6:26 AM EDT 7:58 PM EDT
Astronomical Twilight 5:57 AM EDT 8:28 PM EDT
Moon 9:45 PM EDT (10/4) 11:30 AM EDT (10/4)
Length of Visible Light 12h 31m
Length of Day
11h 40m
Waning Gibbous, 82% of the Moon is Illuminated
Oct 4
Waning Gibbous
Oct 8
Last Quarter
Oct 15
New
Oct 21
First Quarter
Oct 29
Full

Hourly Weather History & Observations

Time (EDT) Temp. Dew Point Humidity Pressure Visibility Wind Dir Wind Speed Gust Speed Precip Events Conditions
12:15 AM 62.6 °F 60.8 °F 94% 30.26 in 10.0 mi Calm Calm - N/A   Clear
12:35 AM 62.6 °F 60.8 °F 94% 30.27 in 10.0 mi Calm Calm - N/A   Scattered Clouds
12:55 AM 62.6 °F 60.8 °F 94% 30.27 in 10.0 mi West 3.5 mph - N/A   Scattered Clouds
1:15 AM 62.6 °F 60.8 °F 94% 30.27 in 10.0 mi Calm Calm - N/A   Clear
1:35 AM 62.6 °F 60.8 °F 94% 30.26 in 10.0 mi Calm Calm - N/A   Clear
1:55 AM 62.6 °F 60.8 °F 94% 30.27 in 10.0 mi Calm Calm - N/A   Clear
2:15 AM 62.6 °F 60.8 °F 94% 30.26 in 10.0 mi Calm Calm - N/A   Clear
2:35 AM 62.6 °F 60.8 °F 94% 30.26 in 10.0 mi Calm Calm - N/A   Clear
2:55 AM 60.8 °F 60.8 °F 100% 30.25 in 10.0 mi Calm Calm - N/A   Clear
3:15 AM 60.8 °F 60.8 °F 100% 30.25 in 7.0 mi Calm Calm - N/A   Clear
3:35 AM 60.8 °F 60.8 °F 100% 30.25 in 4.0 mi Calm Calm - N/A   Clear
3:55 AM 60.8 °F 60.8 °F 100% 30.25 in 10.0 mi WNW 3.5 mph - N/A   Clear
4:15 AM 60.8 °F 60.8 °F 100% 30.25 in 10.0 mi Calm Calm - N/A   Clear
4:35 AM 60.8 °F 60.8 °F 100% 30.26 in 10.0 mi Calm Calm - N/A   Clear
4:55 AM 60.8 °F 60.8 °F 100% 30.26 in 10.0 mi Calm Calm - N/A   Clear
5:15 AM 60.8 °F 60.8 °F 100% 30.26 in 10.0 mi Calm Calm - N/A   Clear
5:35 AM 60.8 °F 60.8 °F 100% 30.26 in 10.0 mi Calm Calm - N/A   Clear
5:55 AM 59.0 °F 59.0 °F 100% 30.27 in 7.0 mi Calm Calm - N/A   Clear
6:15 AM 60.8 °F 59.0 °F 94% 30.27 in 7.0 mi Calm Calm - N/A   Clear
6:55 AM 59.0 °F 59.0 °F 100% 30.29 in 5.0 mi Calm Calm - N/A   Clear
7:15 AM 59.0 °F 59.0 °F 100% 30.28 in 10.0 mi Calm Calm - N/A   Clear
7:35 AM 59.0 °F 59.0 °F 100% 30.29 in 4.0 mi Calm Calm - N/A   Clear
7:55 AM 59.0 °F 59.0 °F 100% 30.29 in 2.0 mi Calm Calm - N/A   Scattered Clouds
8:15 AM 59.0 °F 59.0 °F 100% 30.30 in 5.0 mi Calm Calm - N/A   Clear
8:35 AM 59.0 °F 59.0 °F 100% 30.30 in 7.0 mi Calm Calm - N/A   Clear
8:55 AM 60.8 °F 60.8 °F 100% 30.30 in 10.0 mi Calm Calm - N/A   Clear
9:15 AM 60.8 °F 60.8 °F 100% 30.31 in 10.0 mi Calm Calm - N/A   Clear
9:35 AM 60.8 °F 60.8 °F 100% 30.31 in 10.0 mi Calm Calm - N/A   Clear
9:55 AM 62.6 °F 60.8 °F 94% 30.31 in 10.0 mi Calm Calm - N/A   Clear
10:15 AM 64.4 °F 60.8 °F 88% 30.32 in 10.0 mi Calm Calm - N/A   Clear
10:35 AM 64.4 °F 60.8 °F 88% 30.32 in 10.0 mi Calm Calm - N/A   Clear
10:55 AM 68.0 °F 60.8 °F 78% 30.32 in 10.0 mi WNW 3.5 mph - N/A   Clear
11:15 AM 69.8 °F 57.2 °F 64% 30.32 in 10.0 mi West 3.5 mph - N/A   Clear
11:35 AM 71.6 °F 57.2 °F 60% 30.32 in 10.0 mi Calm Calm - N/A   Clear
11:55 AM 71.6 °F 55.4 °F 57% 30.31 in 10.0 mi NNW 5.8 mph - N/A   Clear
12:15 PM 73.4 °F 55.4 °F 53% 30.31 in 10.0 mi West 9.2 mph - N/A   Clear
12:35 PM 73.4 °F 55.4 °F 53% 30.30 in 10.0 mi WNW 8.1 mph - N/A   Clear
12:55 PM 73.4 °F 55.4 °F 53% 30.30 in 10.0 mi West 4.6 mph - N/A   Clear
1:15 PM 73.4 °F 55.4 °F 53% 30.29 in 10.0 mi SW 5.8 mph - N/A   Clear
1:35 PM 77.0 °F 55.4 °F 47% 30.28 in 10.0 mi SW 5.8 mph - N/A   Clear
1:55 PM 77.0 °F 57.2 °F 50% 30.27 in 10.0 mi SW 9.2 mph - N/A   Clear
2:15 PM 77.0 °F 55.4 °F 47% 30.27 in 10.0 mi WNW 4.6 mph - N/A   Scattered Clouds
2:35 PM 77.0 °F 55.4 °F 47% 30.27 in 10.0 mi WSW 4.6 mph - N/A   Mostly Cloudy
2:55 PM 77.0 °F 55.4 °F 47% 30.26 in 10.0 mi Calm Calm - N/A   Scattered Clouds
3:15 PM 77.0 °F 53.6 °F 44% 30.26 in 10.0 mi NNW 6.9 mph - N/A   Scattered Clouds
3:35 PM 77.0 °F 51.8 °F 41% 30.26 in 10.0 mi NNW 6.9 mph - N/A   Scattered Clouds
3:55 PM 77.0 °F 53.6 °F 44% 30.25 in 10.0 mi NNW 8.1 mph - N/A   Scattered Clouds
4:15 PM 77.0 °F 53.6 °F 44% 30.25 in 10.0 mi NW 6.9 mph - N/A   Clear
4:35 PM 77.0 °F 51.8 °F 41% 30.25 in 10.0 mi NNW 5.8 mph - N/A   Clear
4:55 PM 77.0 °F 53.6 °F 44% 30.25 in 10.0 mi WNW 6.9 mph - N/A   Scattered Clouds
5:15 PM 77.0 °F 51.8 °F 41% 30.25 in 10.0 mi WNW 4.6 mph - N/A   Clear
5:35 PM 75.2 °F 53.6 °F 47% 30.25 in 10.0 mi WNW 3.5 mph - N/A   Clear
5:55 PM 73.4 °F 53.6 °F 50% 30.25 in 10.0 mi NW 5.8 mph - N/A   Clear
6:15 PM 71.6 °F 53.6 °F 53% 30.26 in 10.0 mi NW 4.6 mph - N/A   Clear
6:35 PM 71.6 °F 53.6 °F 53% 30.25 in 10.0 mi NW 4.6 mph - N/A   Clear
6:55 PM 68.0 °F 53.6 °F 60% 30.26 in 10.0 mi NW 4.6 mph - N/A   Clear
7:15 PM 66.2 °F 53.6 °F 64% 30.26 in 10.0 mi NW 5.8 mph - N/A   Clear
7:35 PM 64.4 °F 51.8 °F 64% 30.26 in 10.0 mi NW 5.8 mph - N/A   Clear
7:55 PM 66.2 °F 51.8 °F 60% 30.25 in 10.0 mi NW 6.9 mph - N/A   Clear
8:15 PM 66.2 °F 51.8 °F 60% 30.26 in 10.0 mi NNW 8.1 mph - N/A   Clear
8:35 PM 64.4 °F 51.8 °F 64% 30.27 in 10.0 mi NW 4.6 mph - N/A   Clear
8:55 PM 60.8 °F 53.6 °F 77% 30.27 in 10.0 mi Calm Calm - N/A   Clear
9:15 PM 59.0 °F 53.6 °F 82% 30.27 in 10.0 mi Calm Calm - N/A   Clear
9:35 PM 59.0 °F 53.6 °F 82% 30.28 in 10.0 mi Calm Calm - N/A   Clear
10:15 PM 59.0 °F 53.6 °F 82% 30.28 in 10.0 mi Calm Calm - N/A   Clear
10:35 PM 55.4 °F 53.6 °F 94% 30.29 in 10.0 mi Calm Calm - N/A   Clear
10:55 PM 55.4 °F 53.6 °F 94% 30.30 in 10.0 mi Calm Calm - N/A   Clear
11:15 PM 55.4 °F 53.6 °F 94% 30.30 in 10.0 mi Calm Calm - N/A   Clear
11:35 PM 53.6 °F 53.6 °F 100% 30.30 in 10.0 mi Calm Calm - N/A   Clear
11:55 PM 53.6 °F 53.6 °F 100% 30.30 in 10.0 mi Calm Calm - N/A   Clear